[[{"header":{"parameterUnit":"m.s-1","parameterCategory":1,"la1":30.2991,"la2":30.254,"lo1":-89.0895,"lo2":-89.0444,"dy":0.0017,"dx":0.0017,"nx":28,"ny":28,"refTime":"2024-04-05T21:00:00:Z","depth":0,"parameterNumber":2,"parameterNumberName":"U-component_of_WINDS"},"data":[0,0,0,0,0,0,0,0,0,0,0,0,0,0,0,0,0,0,0,0,0,0,0,0,0,0,0,0,0,0,0,0,0,0,0,0,0,0,0,0,0,0,0,0,0,0,0,0,0,0,0,0,0,0,0,0,0,0,-2.4216,-2.4215,0,-2.416,-2.4159,-2.4159,-2.4026,-2.4024,-2.4021,-2.4018,-2.3964,-2.3965,-2.3967,0,0,0,0,0,0,0,0,0,0,0,0,0,-2.421,-2.4211,-2.4216,-2.4215,-2.4214,-2.416,-2.4159,-2.4158,-2.4027,-2.4024,-2.402,-2.4017,-2.3964,-2.3965,-2.3967,0,0,0,0,0,0,0,0,0,0,0,0,0,-2.4189,-2.4211,-2.4216,-2.4142,-2.4135,-2.416,-2.4159,-2.4158,-2.4028,-2.4023,-2.4019,-2.4015,-2.3964,-2.3965,-2.3967,-2.406,0,0,-2.3972,-2.3973,0,0,0,0,0,0,0,0,-2.4191,-2.419,-2.4154,-2.4147,-2.4139,-2.4096,-2.4137,-2.4125,-2.4029,-2.4069,-2.4018,-2.4013,-2.4012,-2.4009,-2.4008,-2.4058,-2.4055,-2.3972,-2.3973,-2.3974,-2.3974,0,0,0,0,0,0,0,-2.4192,-2.4191,-2.4194,-2.4153,-2.4145,-2.4112,-2.4105,-2.4134,-2.4064,-2.4065,-2.4055,-2.405,-2.4007,-2.4007,-2.4006,-2.4055,-2.3972,-2.3974,-2.3975,-2.3975,-2.4175,-2.4179,0,0,0,0,0,0,-2.4204,-2.4193,-2.4195,-2.4192,-2.4155,-2.4116,-2.4107,-2.4114,-2.4063,-2.4052,-2.4054,-2.4044,-2.4006,-2.4004,-2.4003,-2.4107,-2.3974,-2.3976,-2.3977,-2.4171,-2.4176,-2.418,0,0,0,0,0,0,-2.4204,-2.4206,-2.4198,-2.419,-2.4187,-2.412,-2.4129,-2.4115,-2.4114,-2.4055,-2.4042,-2.4066,-2.4002,-2.4001,-2.4046,-2.4103,-2.3976,-2.3978,-2.4166,-2.4172,-2.4178,-2.4316,0,0,0,0,0,0,-2.4205,-2.4206,-2.4241,-2.4192,-2.4187,-2.4242,-2.4132,-2.4117,-2.4117,-2.4104,-2.4063,-2.4052,-2.3999,-2.4044,-2.4048,-2.4103,-2.3979,-2.416,-2.4168,-2.4176,-2.4306,-2.4327,-2.4344,0,0,0,0,0,-2.4205,-2.4284,-2.4244,-2.4245,-2.4229,-2.4245,-2.4243,-2.4179,-2.4123,-2.4157,-2.4118,-2.4054,-2.4097,-2.405,-2.4053,-2.411,-2.4156,-2.4166,-2.4175,-2.4298,-2.4323,-2.4344,0,0,0,0,0,0,-2.4343,-2.4276,-2.4231,-2.4296,-2.4277,-2.4223,-2.4264,-2.4208,-2.4206,-2.4194,-2.4115,-2.4107,-2.4163,-2.4141,-2.409,-2.4196,-2.4116,-2.4126,-2.4208,-2.4231,-2.4249,-2.4253,-2.3981,0,0,0,0,0,-2.4381,-2.4399,-2.4339,-2.4403,-2.4395,-2.4332,-2.4336,-2.4288,-2.4266,-2.4258,-2.4223,-2.4205,-2.4213,-2.4221,-2.4226,-2.4303,-2.4291,-2.4343,-2.4362,-2.4378,-2.4387,-2.4424,-2.4445,-2.4212,-2.4212,-2.4212,0,0,-2.446,-2.4425,-2.4442,-2.4429,-2.4409,-2.4429,-2.4326,-2.4353,-2.4366,-2.4262,-2.4302,-2.4276,-2.425,-2.431,-2.4335,-2.4294,-2.4449,-2.439,-2.4403,-2.4404,-2.4436,-2.4458,-2.4478,-2.4219,-2.4217,-2.4216,0,0,-2.4613,-2.459,-2.4638,-2.4619,-2.4589,-2.4546,-2.4558,-2.4512,-2.4489,-2.4528,-2.4449,-2.4465,-2.4483,-2.4467,-2.4461,-2.4606,-2.4546,-2.461,-2.4708,-2.4744,-2.4763,-2.4779,-2.4828,-2.4847,-2.462,-2.4621,-2.4621,0,-2.4715,-2.4741,-2.467,-2.4701,-2.4697,-2.4602,-2.465,-2.4635,-2.461,-2.4609,-2.4563,-2.4581,-2.4557,-2.4611,-2.4646,-2.4646,-2.4656,-2.4614,-2.4766,-2.4781,-2.4795,-2.4841,-2.486,-2.4628,-2.4628,-2.4627,-2.4626,0,-2.4867,-2.4887,-2.493,-2.4904,-2.4905,-2.4945,-2.488,-2.4889,-2.4841,-2.4803,-2.4842,-2.481,-2.4805,-2.4815,-2.4769,-2.4862,-2.4837,-2.478,-2.4697,-2.4826,-2.4868,-2.4885,-2.464,-2.4637,-2.4635,-2.4633,0,0,-2.5107,-2.504,-2.5057,-2.5043,-2.5002,-2.5016,-2.505,-2.5044,-2.5053,-2.5039,-2.5065,-2.5081,-2.5026,-2.502,-2.4971,-2.5003,-2.5117,-2.4941,-2.4939,-2.4973,-2.5215,-2.5257,-2.5279,-2.5077,-2.508,-2.5083,-2.5216,0,-2.5249,-2.5302,-2.5238,-2.5306,-2.5322,-2.5231,-2.5261,-2.5239,-2.5204,-2.5213,-2.5174,-2.5185,-2.5114,-2.5109,-2.5137,-2.5098,-2.5164,-2.5087,-2.51,-2.5101,-2.5107,-2.5301,-2.5346,-2.5473,-2.5232,-2.5235,-2.5237,0,-2.5422,-2.5412,-2.5481,-2.5433,-2.5437,-2.5465,-2.5453,-2.5463,-2.5436,-2.5408,-2.54,-2.534,-2.537,-2.5291,-2.5331,-2.528,-2.5281,-2.5262,-2.5266,-2.5263,-2.5176,-2.5302,-2.5512,-2.5531,-2.5263,-2.5261,-2.5259,0,-2.5586,-2.5592,-2.5632,-2.5624,-2.557,-2.5591,-2.5569,-2.5538,-2.5538,-2.5528,-2.5526,-2.5521,-2.5518,-2.5515,-2.5455,-2.5404,-2.5501,-2.5418,-2.5478,-2.548,-2.5502,-2.5501,-2.5714,-2.5507,-2.5506,-2.5506,-2.5506,0,-2.575,-2.5796,-2.5705,-2.573,-2.5777,-2.5703,-2.5753,-2.5722,-2.5694,-2.5712,-2.5634,-2.5652,-2.5573,-2.5582,-2.5536,-2.5575,-2.5575,-2.5552,-2.5539,-2.5558,-2.556,-2.5556,-2.5545,-2.5511,-2.551,-2.5509,-2.5508,0,-2.5942,-2.5884,-2.5921,-2.5866,-2.5853,-2.589,-2.5843,-2.5864,-2.5823,-2.5846,-2.5847,-2.5783,-2.579,-2.573,-2.5727,-2.5695,-2.5754,-2.5727,-2.5763,-2.5754,-2.5816,-2.581,-2.6032,-2.6057,-2.5837,-2.5839,-2.5841,0,-2.605,-2.6082,-2.6029,-2.6034,-2.6016,-2.6026,-2.6024,-2.5953,-2.5955,-2.5925,-2.5949,-2.5949,-2.5945,-2.596,-2.5914,-2.591,-2.588,-2.5958,-2.5879,-2.5896,-2.5878,-2.5876,-2.5878,-2.5975,-2.5977,-2.598,-2.5981,0,-2.6246,-2.6215,-2.6215,-2.6205,-2.6205,-2.6194,-2.6177,-2.6186,-2.6108,-2.6114,-2.6119,-2.6116,-2.6111,-2.6111,-2.6098,-2.6076,-2.6015,-2.6007,-2.602,-2.6038,-2.6057,-2.6045,-2.5806,-2.6002,-2.6,-2.5998,-2.5997,-2.5996,-2.6397,-2.642,-2.6386,-2.6388,-2.6368,-2.6354,-2.6369,-2.633,-2.6332,-2.6321,-2.6279,-2.6291,-2.6261,-2.6237,-2.622,-2.6228,-2.619,-2.621,-2.6215,-2.622,-2.623,-2.6057,-2.6226,-2.6225,-2.6225,-2.6224,-2.6224,0,-2.6587,-2.656,-2.6562,-2.6541,-2.6542,-2.6485,-2.6463,-2.6468,-2.6479,-2.6456,-2.6453,-2.6458,-2.6457,-2.641,-2.6404,-2.6419,-2.6391,-2.642,-2.6417,-2.6412,-2.6266,-2.6254,-2.6442,-2.6442,-2.6442,-2.6442,-2.6442,-2.6442,-2.6685,-2.672,-2.6685,-2.6709,-2.6681,-2.6691,-2.6683,-2.667,-2.665,-2.6658,-2.6657,-2.6626,-2.6593,-2.6583,-2.6579,-2.6565,-2.6566,-2.6603,-2.658,-2.6444,-2.6423,-2.6402,-2.639,-2.6605,-2.6605,-2.6725,-2.6726,-2.6727]},{"header":{"parameterUnit":"m.s-1","parameterCategory":1,"la1":30.2991,"la2":30.254,"lo1":-89.0895,"lo2":-89.0444,"dy":0.0017,"dx":0.0017,"nx":28,"ny":28,"refTime":"2024-04-05T21:00:00:Z","depth":0,"parameterNumber":3,"parameterNumberName":"V-component_of_WINDS"},"data":[0,0,0,0,0,0,0,0,0,0,0,0,0,0,0,0,0,0,0,0,0,0,0,0,0,0,0,0,0,0,0,0,0,0,0,0,0,0,0,0,0,0,0,0,0,0,0,0,0,0,0,0,0,0,0,0,0,0,-2.2477,-2.2478,0,-2.2529,-2.2529,-2.253,-2.2537,-2.2536,-2.2536,-2.2535,-2.2585,-2.2586,-2.2588,0,0,0,0,0,0,0,0,0,0,0,0,0,-2.2381,-2.2383,-2.2477,-2.2478,-2.2479,-2.2529,-2.2529,-2.253,-2.2537,-2.2536,-2.2536,-2.2535,-2.2584,-2.2586,-2.2588,0,0,0,0,0,0,0,0,0,0,0,0,0,-2.2426,-2.2383,-2.2477,-2.2488,-2.249,-2.2528,-2.2529,-2.253,-2.2537,-2.2536,-2.2536,-2.2535,-2.2583,-2.2586,-2.2588,-2.2619,0,0,-2.2596,-2.2598,0,0,0,0,0,0,0,0,-2.2424,-2.243,-2.2486,-2.2487,-2.2489,-2.2526,-2.2513,-2.256,-2.2537,-2.2519,-2.2535,-2.2534,-2.2565,-2.2569,-2.258,-2.2621,-2.2623,-2.2597,-2.2598,-2.2599,-2.26,0,0,0,0,0,0,0,-2.2421,-2.2428,-2.2498,-2.2487,-2.2489,-2.2489,-2.2495,-2.2522,-2.2545,-2.252,-2.2521,-2.2527,-2.2566,-2.2578,-2.2582,-2.2624,-2.2597,-2.2599,-2.2601,-2.2602,-2.269,-2.2691,0,0,0,0,0,0,-2.2416,-2.2425,-2.2496,-2.2499,-2.2454,-2.2491,-2.2498,-2.2515,-2.2545,-2.2549,-2.2528,-2.2527,-2.2574,-2.2579,-2.2583,-2.262,-2.2599,-2.2602,-2.2603,-2.2689,-2.269,-2.2691,0,0,0,0,0,0,-2.2414,-2.2422,-2.2494,-2.2462,-2.2471,-2.2494,-2.2513,-2.2516,-2.2528,-2.2551,-2.2554,-2.2536,-2.2573,-2.258,-2.261,-2.2622,-2.2603,-2.2605,-2.2688,-2.269,-2.2691,-2.2693,0,0,0,0,0,0,-2.2411,-2.2422,-2.2435,-2.2463,-2.2473,-2.2521,-2.2513,-2.2518,-2.2533,-2.2533,-2.2559,-2.2563,-2.2573,-2.2606,-2.2612,-2.2625,-2.2607,-2.2687,-2.2689,-2.269,-2.2692,-2.2695,-2.2696,0,0,0,0,0,-2.2408,-2.2433,-2.2435,-2.2444,-2.249,-2.2521,-2.2527,-2.254,-2.2534,-2.2546,-2.256,-2.2562,-2.2619,-2.2609,-2.2616,-2.263,-2.2687,-2.2688,-2.269,-2.2691,-2.2694,-2.2696,0,0,0,0,0,0,-2.2405,-2.2437,-2.244,-2.2475,-2.2496,-2.2523,-2.2539,-2.2542,-2.2564,-2.2563,-2.2576,-2.2582,-2.2611,-2.2624,-2.2611,-2.266,-2.2652,-2.2656,-2.2651,-2.2653,-2.2655,-2.2651,-2.261,0,0,0,0,0,-2.2408,-2.2433,-2.2459,-2.2487,-2.2498,-2.2516,-2.253,-2.2538,-2.2559,-2.2568,-2.2584,-2.2604,-2.2626,-2.2641,-2.2662,-2.2694,-2.2699,-2.2707,-2.2709,-2.271,-2.2713,-2.2729,-2.2732,-2.2697,-2.2697,-2.2697,0,0,-2.2416,-2.2436,-2.2451,-2.2487,-2.2504,-2.2527,-2.2524,-2.2549,-2.2565,-2.2571,-2.2601,-2.2613,-2.2636,-2.2667,-2.2681,-2.2678,-2.2724,-2.2713,-2.2714,-2.2715,-2.2731,-2.2734,-2.2737,-2.2698,-2.2698,-2.2698,0,0,-2.2441,-2.246,-2.2485,-2.2502,-2.2527,-2.2539,-2.2545,-2.2572,-2.2581,-2.2611,-2.2615,-2.2634,-2.2673,-2.2688,-2.2701,-2.2731,-2.2732,-2.2737,-2.2748,-2.2763,-2.2766,-2.2768,-2.2777,-2.2781,-2.274,-2.274,-2.274,0,-2.2447,-2.2483,-2.2497,-2.2522,-2.2537,-2.2544,-2.2568,-2.2584,-2.2615,-2.2624,-2.262,-2.2668,-2.2684,-2.2717,-2.2724,-2.2735,-2.2741,-2.2734,-2.2765,-2.2767,-2.277,-2.2778,-2.2782,-2.274,-2.274,-2.274,-2.274,0,-2.2488,-2.2513,-2.253,-2.256,-2.2577,-2.2602,-2.2618,-2.2633,-2.2639,-2.2651,-2.268,-2.2699,-2.2724,-2.2733,-2.2738,-2.2766,-2.2764,-2.2762,-2.2755,-2.2773,-2.2781,-2.2785,-2.2741,-2.2741,-2.274,-2.274,0,0,-2.2513,-2.255,-2.2556,-2.2569,-2.2598,-2.2616,-2.264,-2.2666,-2.2678,-2.2698,-2.2718,-2.2749,-2.2748,-2.2762,-2.277,-2.2783,-2.2804,-2.278,-2.2781,-2.2783,-2.2834,-2.2834,-2.2838,-2.2805,-2.2806,-2.2806,-2.2831,0,-2.2541,-2.2585,-2.2597,-2.2634,-2.2656,-2.2662,-2.2683,-2.2701,-2.2713,-2.2732,-2.2744,-2.2766,-2.2763,-2.2771,-2.2785,-2.2798,-2.2814,-2.2797,-2.2821,-2.2822,-2.2815,-2.2843,-2.2843,-2.2866,-2.2835,-2.2836,-2.2836,0,-2.2579,-2.2601,-2.264,-2.2664,-2.2674,-2.2692,-2.2715,-2.2734,-2.2755,-2.2762,-2.2778,-2.2783,-2.2807,-2.2798,-2.283,-2.2818,-2.2828,-2.2836,-2.2837,-2.2839,-2.283,-2.2844,-2.2874,-2.2877,-2.2842,-2.2841,-2.2841,0,-2.2592,-2.2631,-2.2659,-2.267,-2.2699,-2.2712,-2.2724,-2.2744,-2.2758,-2.2778,-2.2787,-2.2809,-2.2821,-2.2837,-2.2848,-2.2841,-2.2878,-2.2871,-2.2883,-2.2882,-2.289,-2.2889,-2.292,-2.2898,-2.2898,-2.2898,-2.2898,0,-2.2621,-2.2644,-2.2665,-2.2682,-2.2707,-2.2721,-2.2745,-2.2757,-2.2775,-2.2793,-2.28,-2.2817,-2.2831,-2.2849,-2.2858,-2.2881,-2.2887,-2.2892,-2.2894,-2.2891,-2.289,-2.2898,-2.2896,-2.2899,-2.2899,-2.2899,-2.2898,0,-2.2639,-2.2654,-2.2685,-2.271,-2.2717,-2.2734,-2.2755,-2.2771,-2.2782,-2.2805,-2.2811,-2.2829,-2.285,-2.2863,-2.289,-2.2896,-2.2922,-2.2923,-2.2915,-2.2916,-2.2927,-2.2925,-2.2963,-2.2968,-2.2944,-2.2944,-2.2944,0,-2.2656,-2.2674,-2.2701,-2.2714,-2.2727,-2.2748,-2.2762,-2.2776,-2.279,-2.2814,-2.2826,-2.2848,-2.2867,-2.2901,-2.2915,-2.2935,-2.2937,-2.2949,-2.294,-2.2936,-2.2936,-2.2934,-2.2935,-2.295,-2.295,-2.295,-2.2951,0,-2.2684,-2.2691,-2.2712,-2.2735,-2.2752,-2.277,-2.2789,-2.2799,-2.2815,-2.283,-2.2853,-2.2867,-2.2895,-2.2916,-2.2937,-2.2949,-2.2952,-2.2953,-2.2957,-2.2954,-2.2948,-2.295,-2.2918,-2.2952,-2.2952,-2.2952,-2.2952,-2.2952,-2.2702,-2.2717,-2.2739,-2.2761,-2.2776,-2.2793,-2.2809,-2.2822,-2.2842,-2.2866,-2.2872,-2.2895,-2.2913,-2.2943,-2.2954,-2.2972,-2.297,-2.2975,-2.2976,-2.2977,-2.2977,-2.2946,-2.2976,-2.2976,-2.2976,-2.2976,-2.2976,0,-2.2729,-2.2743,-2.2764,-2.2789,-2.2806,-2.2809,-2.2829,-2.2843,-2.2864,-2.2881,-2.2899,-2.2924,-2.2944,-2.296,-2.298,-2.2991,-2.2993,-2.2996,-2.2995,-2.2997,-2.2978,-2.2973,-2.2994,-2.2994,-2.2994,-2.2994,-2.2994,-2.2994,-2.2745,-2.2772,-2.278,-2.2813,-2.2827,-2.285,-2.2861,-2.2876,-2.289,-2.2918,-2.2935,-2.2945,-2.2962,-2.2983,-2.3001,-2.3005,-2.3012,-2.3015,-2.3018,-2.3001,-2.2998,-2.2997,-2.2991,-2.3016,-2.3016,-2.3036,-2.3036,-2.3036]}]]